{"data":{"norad_id":65243,"epoch":"2026-09-20T23:14:22.679520Z","epoch_age_seconds":76995,"freshness":"FRESH","line1":"1 65243U 25179J   26263.96831805  .00005418  00000+0  17004-3 0  9995","line2":"2 65243  97.2839 303.2669 0001450 118.3637 241.7752 15.33445845 61544","mean_motion":15.33445845,"eccentricity":0.000145,"inclination_deg":97.2839,"raan_deg":303.2669,"arg_perigee_deg":118.3637,"mean_anomaly_deg":241.7752,"bstar":0.00017004,"rev_number":6154,"period_min":93.906152910147,"perigee_km":464.54832709304,"apogee_km":466.53299361454,"semimajor_km":6843.6776603538,"source":"CELESTRAK","updated_at":"2026-09-21T09:00:35.559068Z"}}